DW0417 Weather Reports


time (UTC)temp
F
wind
direction
speed
knots
gust
knots
rain 1hr
in
rain 24hr
in
rain mn
in
humidity
%
barometer
mb
20260903120854 55 214 0.0 0.0 0.00 0.00 0.00 78 1015.1
20260903115855 56 214 0.0 1.7 0.00 0.00 0.00 77 1015.0
20260903114854 55 181 0.0 2.6 0.00 0.00 0.00 79 1015.0
20260903113853 55 170 0.9 1.7 0.00 0.00 0.00 78 1015.1
20260903112854 55 44 0.0 0.9 0.00 0.00 0.00 79 1015.0
20260903112248 56 44 0.0 1.7 0.00 0.00 0.00 77 1014.9
20260903112029 55 44 0.0 0.0 0.00 0.00 0.00 81 1014.9
20260903105855 56 44 0.0 1.7 0.00 0.00 0.00 79 1015.0
20260903104854 56 44 1.7 3.5 0.00 0.00 0.00 78 1015.0
20260903104343 56 46 0.0 2.6 0.00 0.00 0.00 79 1015.0
20260903102855 57 46 0.0 2.6 0.00 0.00 0.00 77 1014.8
20260903101849 58 87 0.0 1.7 0.00 0.00 0.00 75 1014.9
20260903101759 59 307 0.0 1.7 0.00 0.00 0.00 73 1015.0
20260903100330 60 262 0.9 4.3 0.00 0.00 0.00 71 1015.0
20260903094847 59 195 0.9 2.6 0.00 0.00 0.00 73 1015.1
20260903093849 58 194 0.9 2.6 0.00 0.00 0.00 79 1015.1
20260903092848 58 225 0.0 0.9 0.00 0.00 0.00 78 1015.1
20260903092316 59 226 0.0 0.0 0.00 0.00 0.00 74 1015.2
20260903091321 60 226 0.9 2.6 0.00 0.00 0.00 73 1015.2
20260903085839 59 192 0.0 2.6 0.00 0.00 0.00 75 1015.1
20260903084840 59 53 0.9 1.7 0.00 0.00 0.00 76 1015.1
20260903083841 60 53 0.0 1.7 0.00 0.00 0.00 75 1015.1
20260903082841 60 261 0.0 1.7 0.00 0.00 0.00 72 1015.0
20260903081839 61 288 0.0 0.0 0.00 0.00 0.00 71 1014.9
20260903080839 62 288 0.0 0.0 0.00 0.00 0.00 67 1015.0
20260903080324 62 288 0.0 0.9 0.00 0.00 0.00 71 1015.2
20260903074834 63 177 0.9 2.6 0.00 0.00 0.00 68 1015.1
20260903073834 62 260 0.0 0.9 0.00 0.00 0.00 73 1015.1
20260903073322 63 260 0.0 0.9 0.00 0.00 0.00 69 1015.0
20260903071833 63 260 0.0 0.0 0.00 0.00 0.00 71 1015.1
20260903070835 64 260 0.0 0.0 0.00 0.00 0.00 71 1015.2
20260903065834 65 260 0.0 0.9 0.00 0.00 0.00 68 1015.3
20260903064835 65 287 0.0 0.9 0.00 0.00 0.00 67 1015.5
20260903063833 66 177 0.0 0.0 0.00 0.00 0.00 65 1015.5
20260903062835 66 177 0.0 0.9 0.00 0.00 0.00 66 1015.5
20260903061829 66 190 0.9 1.7 0.00 0.00 0.00 67 1015.5
20260903060828 66 107 0.0 1.7 0.00 0.00 0.00 69 1015.5
20260903055828 66 91 1.7 3.5 0.00 0.00 0.00 66 1015.5
20260903054827 66 74 0.0 1.7 0.00 0.00 0.00 63 1015.2
20260903053827 67 259 0.9 2.6 0.00 0.00 0.00 62 1015.3
20260903053307 67 293 2.6 5.2 0.00 0.00 0.00 64 1015.2
20260903051828 65 260 1.7 4.3 0.00 0.00 0.00 67 1015.3
20260903050829 65 67 0.0 0.9 0.00 0.00 0.00 68 1015.5
20260903045828 67 67 0.9 3.5 0.00 0.00 0.00 66 1015.8
20260903044822 67 236 0.0 0.0 0.00 0.00 0.00 65 1015.5
20260903043822 66 230 0.0 1.7 0.00 0.00 0.00 66 1015.7
20260903042822 66 88 0.0 0.9 0.00 0.00 0.00 64 1015.8
20260903041822 66 88 0.0 0.0 0.00 0.00 0.00 63 1016.2
20260903041306 67 88 0.0 0.0 0.00 0.00 0.00 62 1016.0
20260903040256 67 88 3.5 7.8 0.00 0.00 0.00 63 1015.8
20260903035309 68 101 0.0 2.6 0.00 0.00 0.00 60 1015.6
20260903033821 69 104 0.0 0.9 0.00 0.00 0.00 59 1015.5
20260903032822 70 104 0.0 2.6 0.00 0.00 0.00 58 1015.5
20260903031816 71 104 0.9 3.5 0.00 0.00 0.00 55 1015.8
20260903031252 71 81 3.5 7.0 0.00 0.00 0.00 54 1015.7
20260903025815 73 225 0.9 3.5 0.00 0.00 0.00 50 1015.2
20260903024814 74 303 1.7 4.3 0.00 0.00 0.00 48 1015.2
20260903024730 73 53 1.7 4.3 0.00 0.00 0.00 49 1015.0
20260903022815 73 101 0.0 1.7 0.00 0.00 0.00 48 1015.3
20260903021816 74 80 0.0 1.7 0.00 0.00 0.00 47 1015.2
20260903020816 75 304 0.0 1.7 0.00 0.00 0.00 45 1014.8
20260903015816 76 308 0.9 4.3 0.00 0.00 0.00 44 1014.5
20260903014813 76 340 0.9 4.3 0.00 0.00 0.00 43 1014.6
20260903013814 77 303 0.0 2.6 0.00 0.00 0.00 42 1014.4
20260903012814 78 328 0.0 3.5 0.00 0.00 0.00 41 1014.2
20260903012259 78 341 0.0 2.6 0.00 0.00 0.00 40 1014.2
20260903010813 79 340 0.0 3.5 0.00 0.00 0.00 39 1014.2
20260903005814 80 341 0.0 4.3 0.00 0.00 0.00 38 1014.1
20260903004815 81 309 0.9 2.6 0.00 0.00 0.00 36 1014.1
20260903003815 81 260 0.9 3.5 0.00 0.00 0.00 35 1014.2
20260903002814 81 304 0.9 3.5 0.00 0.00 0.00 34 1014.2
20260903001814 82 295 0.9 4.3 0.00 0.00 0.00 34 1014.2
20260903000814 83 299 2.6 7.8 0.00 0.00 0.00 33 1013.9
20260902235813 83 285 4.3 10.4 0.00 0.00 0.00 33 1013.8
20260902234815 83 238 7.0 10.4 0.00 0.00 0.00 32 1013.9
20260902233814 83 223 7.8 13.9 0.00 0.00 0.00 33 1014.2
20260902232812 82 245 7.0 15.6 0.00 0.00 0.00 32 1014.4
20260902231814 83 234 7.8 16.5 0.00 0.00 0.00 30 1014.5
20260902230813 84 195 8.7 15.6 0.00 0.00 0.00 28 1014.6
20260902225813 85 191 8.7 21.7 0.00 0.00 0.00 27 1014.5
20260902224812 86 92 4.3 15.6 0.00 0.00 0.00 27 1014.2
20260902224259 87 81 2.6 5.2 0.00 0.00 0.00 27 1013.7
20260902222813 87 100 3.5 7.0 0.00 0.00 0.00 25 1013.6
20260902221813 89 169 5.2 9.6 0.00 0.00 0.00 24 1013.2
20260902220812 89 54 6.1 10.4 0.00 0.00 0.00 23 1013.2
20260902215813 89 97 4.3 11.3 0.00 0.00 0.00 24 1013.5
20260902214812 89 46 5.2 10.4 0.00 0.00 0.00 25 1013.7
20260902214248 88 50 4.3 12.2 0.00 0.00 0.00 26 1013.8
20260902213246 89 58 2.6 12.2 0.00 0.00 0.00 25 1013.9
20260902211813 87 79 3.5 9.6 0.00 0.00 0.00 26 1014.1
20260902210813 87 183 4.3 13.9 0.00 0.00 0.00 27 1014.3
20260902210300 87 45 0.9 8.7 0.00 0.00 0.00 26 1014.4
20260902204808 86 63 1.7 4.3 0.00 0.00 0.00 28 1014.8
20260902203806 86 82 4.3 11.3 0.00 0.00 0.00 27 1014.9
20260902202806 86 70 2.6 7.0 0.00 0.00 0.00 27 1015.0
20260902201808 86 136 2.6 9.6 0.00 0.00 0.00 27 1015.0
20260902200807 87 54 5.2 10.4 0.00 0.00 0.00 26 1015.2
20260902195806 87 51 1.7 7.8 0.00 0.00 0.00 28 1015.3
20260902194806 86 170 4.3 13.0 0.00 0.00 0.00 27 1015.5
20260902193806 87 99 5.2 20.0 0.00 0.00 0.00 28 1015.6
20260902193724 86 321 4.3 10.4 0.00 0.00 0.00 28 1015.7
20260902191801 86 73 4.3 13.0 0.00 0.00 0.00 28 1015.9
20260902190800 85 83 5.2 13.9 0.00 0.00 0.00 28 1015.8
20260902185801 85 71 4.3 10.4 0.00 0.00 0.00 30 1016.2
20260902185734 86 61 3.5 7.8 0.00 0.00 0.00 30 1016.3
20260902183802 85 46 3.5 7.8 0.00 0.00 0.00 30 1016.5
20260902182800 84 79 5.2 11.3 0.00 0.00 0.00 29 1016.6
20260902182722 85 52 3.5 11.3 0.00 0.00 0.00 30 1016.9
20260902180802 84 70 4.3 10.4 0.00 0.00 0.00 30 1017.1
20260902175800 84 131 3.5 7.8 0.00 0.00 0.00 30 1017.2
20260902174755 83 83 2.6 6.1 0.00 0.00 0.00 30 1017.4
20260902173753 83 57 3.5 10.4 0.00 0.00 0.00 32 1017.6
20260902172754 82 94 5.2 10.4 0.00 0.00 0.00 34 1017.6
20260902171756 81 48 4.3 9.6 0.00 0.00 0.00 34 1017.7
20260902170754 81 46 6.1 10.4 0.00 0.00 0.00 36 1017.7
20260902165753 81 92 3.5 9.6 0.00 0.00 0.00 37 1017.9
20260902164752 80 92 4.3 9.6 0.00 0.00 0.00 37 1017.9
20260902163753 79 62 7.0 11.3 0.00 0.00 0.00 38 1018.0
20260902162754 79 105 7.0 15.6 0.00 0.00 0.00 40 1017.9
20260902161748 79 105 6.1 11.3 0.00 0.00 0.00 39 1018.0
20260902160747 78 86 6.1 12.2 0.00 0.00 0.00 41 1018.0
20260902155747 78 85 4.3 10.4 0.00 0.00 0.00 40 1018.0
20260902155226 77 84 5.2 9.6 0.00 0.00 0.00 40 1018.0
20260902154715 77 92 5.2 10.4 0.00 0.00 0.00 40 1017.9
20260902152747 76 77 5.2 11.3 0.00 0.00 0.00 43 1017.9
20260902151746 76 23 2.6 8.7 0.00 0.00 0.00 44 1017.9
20260902150747 75 79 3.5 7.0 0.00 0.00 0.00 48 1017.9
20260902145746 74 71 2.6 7.8 0.00 0.00 0.00 49 1017.8
20260902145217 72 47 3.5 6.1 0.00 0.00 0.00 54 1017.8
20260902144212 71 63 1.7 4.3 0.00 0.00 0.00 56 1017.8
20260902142740 70 80 0.9 4.3 0.00 0.00 0.00 55 1017.8
20260902141741 68 82 1.7 5.2 0.00 0.00 0.00 58 1017.8
20260902140741 67 61 2.6 4.3 0.00 0.00 0.00 58 1017.8
20260902135741 66 82 0.9 2.6 0.00 0.00 0.00 60 1017.8
20260902134739 64 82 0.9 3.5 0.00 0.00 0.00 59 1017.8
20260902133741 63 87 0.0 0.9 0.00 0.00 0.00 63 1017.8
20260902133657 62 87 0.9 2.6 0.00 0.00 0.00 64 1017.8
20260902131735 61 87 0.0 0.0 0.00 0.00 0.00 62 1017.6
20260902130732 62 342 0.0 0.0 0.00 0.00 0.00 59 1017.3
20260902130212 62 245 0.0 0.0 0.00 0.00 0.00 58 1017.3
20260902124733 62 225 0.9 3.5 0.00 0.00 0.00 59 1017.2
20260902124202 60 231 0.9 3.5 0.00 0.00 0.00 62 1017.2
20260902122730 58 229 0.9 4.3 0.00 0.00 0.00 69 1017.2
20260902121730 56 99 0.0 3.5 0.00 0.00 0.00 73 1017.2